星链-4671 (STARLINK-4671 )

导读 | 豆包AI

STARLINK-4671是美国SpaceX公司星链(Starlink)星座的第4671颗卫星,于2022年8月28日发射,属于星链Group 4-16批次,质量约297千克,运行在近548公里的近地轨道。作为全球规模最大低轨卫星互联网星座的一员,它通过星间激光通信为全球尤其是偏远地区提供高速宽带互联网接入服务,推动了全球卫星互联网基础设施的建设。

基本信息
目录编号:
53593
目录名称:
STARLINK-4671
国际标识:
2022-104F
轨道中心:
EARTH
卫星名称:
星链-4671
卫星全名:
星链-4671 (STARLINK-4671 )
卫星状态:
已陨落 最后检测时间 2025-07-09
发射日期:
2022-08-28 UTC
国别 :
美国 (US)
星等 :
--
轨道信息
数据来源 国际轨道数据
星历时间: 2025-07-09T13:32:25+0800
轨道信息已过期295天
半长轴: 6552.607km
偏心率: 0.0003346
轨道倾角: 53.153°
近地点辐角 270.579°
升交点赤经 177.861°
平近点角 186.696°
近地点: 172.279km
远地点: 176.665km
周期: 87.979分钟
每日圈数: 16.367473
详细信息
固有亮度:
5
最大亮度:
2.5
卫星平台:
Starlink v1.5
覆盖范围:
全球
运营商:
太空探索技术公司
运营商所在国:
美国
制造商(研发单位):
太空探索技术公司
制造商所在国:
美国
使用方式:
暂无
卫星简介
星链(Starlink)计划是由太空探索技术公司(SpaceX)提出的一个巨型低轨卫星互联网星座项目,计划在2019年至2024年间在太空搭建由约1.2万颗卫星组成的“星链”网络,其中1584颗将部署在地球上空550千米处的近地轨道,并从2020年开始工作。该卫星仍在工作。